Simultaneous Nadir Overpasses (SNOs) Predictions

Prediction of SNOs between FY3D and NPP Satellite Orbit:

Table of predicted SNOs for the next 14.0 days since TLE Epoch: 9/9/2023
Index Date (FY3D) Time (FY3D) Lat,Lon (FY3D) SZA (FY3D ) Date (NPP) Time (NPP) Lat,Lon (NPP) SZA (NPP ) Distance(km) Time Diff (sec)
1 09/11/2023 23:25:31 -81.18, -49.19 99.16 09/11/2023 23:26:47 -81.18, -49.28 99.18 1.69 76
2 09/12/2023 00:16:16 81.18, 118.21 80.85 09/12/2023 00:17:31 81.17, 118.32 80.79 1.93 75
3 09/12/2023 01:07:02 -81.18, -74.42 99.15 09/12/2023 01:08:16 -81.17, -74.34 99.20 1.52 74
4 09/12/2023 01:57:47 81.18, 92.98 80.86 09/12/2023 01:59:01 81.17, 92.89 80.83 1.67 74
5 09/12/2023 02:48:34 -81.18,-100.04 99.09 09/12/2023 02:49:47 -81.18,-100.15 99.11 2.14 73
6 09/12/2023 03:39:18 81.18, 67.36 80.92 09/12/2023 03:40:30 81.18, 67.45 80.86 1.53 72
7 09/12/2023 04:30:04 -81.18,-125.27 99.08 09/12/2023 04:31:15 -81.18,-125.21 99.13 1.06 71
8 09/12/2023 05:20:49 81.18, 42.12 80.92 09/12/2023 05:22:00 81.18, 42.01 80.90 1.94 71
9 09/12/2023 06:11:35 -81.18,-150.51 99.08 09/12/2023 06:12:45 -81.18,-150.65 99.10 2.43 70
10 09/12/2023 07:02:21 81.18, 16.50 80.98 09/12/2023 07:03:30 81.18, 16.57 80.93 1.24 69
11 09/12/2023 07:53:07 -81.18,-176.12 99.02 09/12/2023 07:54:15 -81.18,-176.08 99.06 0.72 68
12 09/12/2023 08:43:52 81.18, -8.73 80.99 09/12/2023 08:45:00 81.18, -8.86 80.97 2.31 68
13 09/12/2023 09:34:38 -81.18, 158.64 99.01 09/12/2023 09:35:45 -81.18, 158.48 99.03 2.79 67
14 09/12/2023 10:25:23 81.18, -33.96 80.99 09/12/2023 10:26:29 81.17, -33.92 80.95 0.97 66
15 09/12/2023 11:16:10 -81.18, 133.02 98.96 09/12/2023 11:17:15 -81.18, 133.04 98.99 0.71 65
16 09/12/2023 12:06:54 81.18, -59.20 81.00 09/12/2023 12:07:59 81.17, -59.36 80.98 2.73 65
17 09/12/2023 12:57:41 -81.18, 107.79 98.95 09/12/2023 12:58:45 -81.18, 107.61 98.96 3.20 64
18 09/12/2023 13:48:26 81.18, -84.82 81.06 09/12/2023 13:49:29 81.18, -84.79 81.02 0.48 63
19 09/12/2023 14:39:12 -81.18, 82.56 98.94 09/12/2023 14:40:14 -81.18, 82.55 98.98 0.29 62
20 09/12/2023 15:29:57 81.18,-110.05 81.06 09/12/2023 15:30:59 81.18,-110.23 81.05 3.02 62
21 09/12/2023 16:20:44 -81.18, 56.94 98.89 09/12/2023 16:21:44 -81.18, 57.11 98.94 3.03 60
22 09/12/2023 17:11:29 81.18,-135.68 81.12 09/12/2023 17:12:29 81.18,-135.67 81.09 0.30 60
23 09/12/2023 18:02:15 -81.18, 31.70 98.88 09/12/2023 18:03:14 -81.18, 31.68 98.91 0.45 59
24 09/12/2023 18:53:00 81.18,-160.91 81.13 09/12/2023 18:53:58 81.17,-160.73 81.07 3.26 58
25 09/12/2023 19:43:47 -81.18, 6.08 98.82 09/12/2023 19:44:44 -81.18, 6.24 98.87 2.73 57
26 09/12/2023 20:34:31 81.18, 173.86 81.14 09/12/2023 20:35:28 81.17, 173.84 81.10 0.69 57
27 09/12/2023 21:25:18 -81.18, -19.15 98.82 09/12/2023 21:26:14 -81.18, -19.20 98.84 0.95 56
28 09/12/2023 22:16:03 81.18, 148.23 81.19 09/12/2023 22:16:58 81.17, 148.40 81.14 2.87 55
29 09/12/2023 23:06:49 -81.18, -44.39 98.81 09/12/2023 23:07:43 -81.17, -44.25 98.86 2.30 54
30 09/12/2023 23:57:34 81.18, 123.00 81.20 09/12/2023 23:58:28 81.18, 122.96 81.17 0.65 54
31 09/13/2023 00:48:20 -81.18, -69.62 98.80 09/13/2023 00:49:13 -81.18, -69.69 98.82 1.26 53
32 09/13/2023 01:39:06 81.18, 97.38 81.26 09/13/2023 01:39:58 81.18, 97.52 81.21 2.53 52
33 09/13/2023 02:29:52 -81.18, -95.24 98.75 09/13/2023 02:30:43 -81.18, -95.13 98.79 1.91 51
34 09/13/2023 03:20:37 81.18, 72.14 81.26 09/13/2023 03:21:28 81.18, 72.09 81.24 0.97 51
35 09/13/2023 04:11:23 -81.18,-120.47 98.74 09/13/2023 04:12:13 -81.18,-120.56 98.75 1.56 50
36 09/13/2023 05:02:08 81.18, 46.91 81.27 09/13/2023 05:02:57 81.17, 47.03 81.22 2.24 49
37 09/13/2023 05:52:55 -81.18,-146.09 98.68 09/13/2023 05:53:43 -81.18,-146.00 98.72 1.61 48
38 09/13/2023 06:43:40 81.18, 21.29 81.33 09/13/2023 06:44:28 81.18, 21.21 81.31 1.43 48
39 09/13/2023 07:34:26 -81.18,-171.33 98.68 09/13/2023 07:35:13 -81.18,-171.44 98.68 1.96 47
40 09/13/2023 08:25:11 81.18, -3.95 81.33 09/13/2023 08:25:57 81.17, -3.85 81.29 1.81 46
41 09/13/2023 09:15:57 -81.18, 163.44 98.67 09/13/2023 09:16:42 -81.17, 163.51 98.70 1.24 45
42 09/13/2023 10:06:42 81.18, -29.18 81.34 09/13/2023 10:07:27 81.18, -29.28 81.33 1.71 45
43 09/13/2023 10:57:28 -81.18, 138.21 98.66 09/13/2023 10:58:12 -81.18, 138.07 98.67 2.37 44
44 09/13/2023 11:48:14 81.18, -54.81 81.40 09/13/2023 11:48:57 81.18, -54.72 81.36 1.45 43
45 09/13/2023 12:39:00 -81.18, 112.59 98.60 09/13/2023 12:39:42 -81.18, 112.63 98.63 0.79 42
46 09/13/2023 13:29:45 81.18, -80.04 81.41 09/13/2023 13:30:27 81.18, -80.16 81.40 2.03 42
47 09/13/2023 14:20:31 -81.18, 87.35 98.60 09/13/2023 14:21:12 -81.18, 87.19 98.60 2.68 41
48 09/13/2023 15:11:17 81.18,-105.66 81.46 09/13/2023 15:11:57 81.18,-105.60 81.43 1.23 40
49 09/13/2023 16:02:03 -81.18, 61.73 98.54 09/13/2023 16:02:42 -81.18, 61.76 98.56 0.55 39
50 09/13/2023 16:52:48 81.18,-130.90 81.47 09/13/2023 16:53:27 81.18,-131.03 81.47 2.43 39
51 09/13/2023 17:43:34 -81.18, 36.50 98.53 09/13/2023 17:44:12 -81.18, 36.32 98.53 3.05 38
52 09/13/2023 18:34:19 81.18,-156.13 81.48 09/13/2023 18:34:56 81.17,-156.09 81.45 0.80 37
53 09/13/2023 19:25:05 -81.18, 11.26 98.53 09/13/2023 19:25:41 -81.17, 11.26 98.55 0.55 36
54 09/13/2023 20:15:50 81.18, 178.63 81.48 09/13/2023 20:16:26 81.18, 178.47 81.49 2.78 36
55 09/13/2023 21:06:37 -81.18, -14.36 98.47 09/13/2023 21:07:11 -81.18, -14.17 98.51 3.14 34
56 09/13/2023 21:57:22 81.18, 153.01 81.54 09/13/2023 21:57:56 81.18, 153.03 81.52 0.38 34
57 09/13/2023 22:48:08 -81.18, -39.59 98.46 09/13/2023 22:48:41 -81.18, -39.61 98.48 0.36 33
58 09/13/2023 23:38:53 81.18, 127.78 81.55 09/13/2023 23:39:26 81.18, 127.59 81.56 3.10 33
59 09/14/2023 00:29:40 -81.18, -65.21 98.41 09/14/2023 00:30:11 -81.18, -65.05 98.44 2.79 31
60 09/14/2023 01:20:25 81.18, 102.15 81.61 09/14/2023 01:20:56 81.18, 102.16 81.59 0.46 31
61 09/14/2023 02:11:11 -81.18, -90.45 98.40 09/14/2023 02:11:41 -81.18, -90.49 98.41 0.74 30
62 09/14/2023 03:01:56 81.18, 76.92 81.61 09/14/2023 03:02:25 81.17, 77.10 81.57 3.15 29
63 09/14/2023 03:52:42 -81.18,-115.68 98.39 09/14/2023 03:53:10 -81.17,-115.54 98.43 2.46 28
64 09/14/2023 04:43:27 81.18, 51.68 81.62 09/14/2023 04:43:55 81.17, 51.66 81.61 0.56 28
65 09/14/2023 05:34:14 -81.18,-141.30 98.33 09/14/2023 05:34:41 -81.18,-141.36 98.34 1.24 27
66 09/14/2023 06:24:59 81.18, 26.06 81.68 09/14/2023 06:25:25 81.18, 26.22 81.64 2.78 26
67 09/14/2023 07:15:44 -81.18,-166.54 98.33 09/14/2023 07:16:09 -81.17,-166.42 98.36 2.03 25
68 09/14/2023 08:06:29 81.18, 0.83 81.68 09/14/2023 08:06:54 81.18, 0.78 81.68 0.70 25
69 09/14/2023 08:57:15 -81.18, 168.23 98.32 09/14/2023 08:57:39 -81.18, 168.14 98.32 1.47 24
70 09/14/2023 09:48:01 81.18, -24.80 81.74 09/14/2023 09:48:24 81.18, -24.65 81.71 2.47 23
71 09/14/2023 10:38:47 -81.18, 142.61 98.26 09/14/2023 10:39:09 -81.18, 142.71 98.29 1.67 22
72 09/14/2023 11:29:32 81.18, -50.03 81.75 09/14/2023 11:29:54 81.18, -50.09 81.75 1.11 22
73 09/14/2023 12:20:18 -81.18, 117.37 98.26 09/14/2023 12:20:39 -81.18, 117.27 98.25 1.82 21
74 09/14/2023 13:11:03 81.18, -75.27 81.76 09/14/2023 13:11:23 81.17, -75.15 81.73 2.10 20
75 09/14/2023 14:01:50 -81.18, 91.75 98.20 09/14/2023 14:02:09 -81.18, 91.83 98.22 1.43 19
76 09/14/2023 14:52:34 81.18,-100.50 81.76 09/14/2023 14:52:53 81.17,-100.59 81.76 1.51 19
77 09/14/2023 15:43:21 -81.18, 66.52 98.19 09/14/2023 15:43:39 -81.18, 66.39 98.18 2.25 18
78 09/14/2023 16:34:06 81.18,-126.13 81.82 09/14/2023 16:34:23 81.18,-126.03 81.80 1.70 17
79 09/14/2023 17:24:52 -81.18, 41.28 98.18 09/14/2023 17:25:08 -81.17, 41.34 98.20 0.94 16
80 09/14/2023 18:15:37 81.18,-151.36 81.83 09/14/2023 18:15:53 81.18,-151.47 81.83 1.77 16
81 09/14/2023 19:06:23 -81.18, 16.05 98.18 09/14/2023 19:06:38 -81.18, 15.90 98.17 2.59 15
82 09/14/2023 19:57:09 81.18,-176.98 81.89 09/14/2023 19:57:23 81.18,-176.90 81.87 1.40 14
83 09/14/2023 20:47:55 -81.18, -9.57 98.12 09/14/2023 20:48:08 -81.18, -9.54 98.13 0.55 13
84 09/14/2023 21:38:40 81.18, 157.78 81.89 09/14/2023 21:38:53 81.18, 157.66 81.90 2.14 13
85 09/14/2023 22:29:26 -81.18, -34.81 98.11 09/14/2023 22:29:38 -81.18, -34.98 98.10 2.93 12
86 09/14/2023 23:20:11 81.18, 132.54 81.90 09/14/2023 23:20:22 81.17, 132.60 81.88 1.12 11
87 09/15/2023 00:10:58 -81.18, -60.43 98.06 09/15/2023 00:11:08 -81.18, -60.42 98.06 0.55 10
88 09/15/2023 01:01:42 81.18, 107.31 81.91 09/15/2023 01:01:52 81.17, 107.16 81.92 2.56 10
89 09/15/2023 01:52:29 -81.18, -85.66 98.05 09/15/2023 01:52:37 -81.17, -85.47 98.08 3.26 8
90 09/15/2023 02:43:14 81.18, 81.69 81.96 09/15/2023 02:43:22 81.18, 81.72 81.96 0.64 8
91 09/15/2023 03:34:00 -81.18,-110.90 98.04 09/15/2023 03:34:07 -81.18,-110.91 98.05 0.43 7
92 09/15/2023 04:24:45 81.18, 56.45 81.97 09/15/2023 04:24:52 81.18, 56.28 81.99 2.85 7
93 09/15/2023 05:15:32 -81.18,-136.52 97.98 09/15/2023 05:15:37 -81.18,-136.35 98.01 2.89 5
94 09/15/2023 06:06:17 81.18, 30.83 82.03 09/15/2023 06:06:22 81.18, 30.84 82.03 0.40 5
95 09/15/2023 06:57:03 -81.18,-161.75 97.98 09/15/2023 06:57:07 -81.18,-161.79 97.97 0.58 4
96 09/15/2023 07:47:48 81.18, 5.59 82.04 09/15/2023 07:47:52 81.18, 5.41 82.06 3.20 4
97 09/15/2023 08:38:35 -81.18, 172.62 97.92 09/15/2023 08:38:37 -81.18, 172.77 97.94 2.57 2
98 09/15/2023 09:29:19 81.18, -19.64 82.04 09/15/2023 09:29:21 81.17, -19.65 82.04 0.61 2
99 09/15/2023 10:20:06 -81.18, 147.39 97.91 09/15/2023 10:20:07 -81.18, 147.34 97.90 1.04 1
100 09/15/2023 11:10:51 81.18, -45.27 82.10 09/15/2023 11:10:51 81.17, -45.09 82.08 3.04 0
101 09/15/2023 12:01:37 -81.18, 122.15 97.91 09/15/2023 12:01:36 -81.17, 122.28 97.92 2.17 1
102 09/15/2023 12:52:22 81.18, -70.50 82.11 09/15/2023 12:52:21 81.18, -70.53 82.11 0.48 1
103 09/15/2023 13:43:08 -81.18, 96.92 97.90 09/15/2023 13:43:06 -81.18, 96.84 97.89 1.41 2
104 09/15/2023 14:33:54 81.18, -96.13 82.17 09/15/2023 14:33:51 81.18, -95.97 82.15 2.70 3
105 09/15/2023 15:24:40 -81.18, 71.30 97.84 09/15/2023 15:24:36 -81.18, 71.40 97.85 1.77 4
106 09/15/2023 16:15:25 81.18,-121.36 82.17 09/15/2023 16:15:21 81.18,-121.41 82.18 0.82 4
107 09/15/2023 17:06:11 -81.18, 46.06 97.83 09/15/2023 17:06:06 -81.18, 45.96 97.82 1.70 5
108 09/15/2023 17:56:56 81.18,-146.60 82.18 09/15/2023 17:56:50 81.17,-146.47 82.16 2.39 6
109 09/15/2023 18:47:43 -81.18, 20.44 97.78 09/15/2023 18:47:36 -81.18, 20.52 97.78 1.46 7
110 09/15/2023 19:38:28 81.18,-172.22 82.24 09/15/2023 19:38:21 81.18,-172.29 82.25 1.30 7
111 09/15/2023 20:29:14 -81.18, -4.79 97.77 09/15/2023 20:29:06 -81.18, -4.91 97.75 2.09 8
112 09/15/2023 21:19:59 81.18, 162.54 82.25 09/15/2023 21:19:50 81.18, 162.66 82.23 1.97 9
113 09/15/2023 22:10:45 -81.18, -30.03 97.76 09/15/2023 22:10:35 -81.17, -29.97 97.77 1.12 10
114 09/15/2023 23:01:30 81.18, 137.31 82.25 09/15/2023 23:01:20 81.18, 137.22 82.27 1.54 10
115 09/15/2023 23:52:16 -81.18, -55.27 97.75 09/15/2023 23:52:05 -81.18, -55.41 97.73 2.51 11
116 09/16/2023 00:43:02 81.18, 111.68 82.31 09/16/2023 00:42:50 81.18, 111.78 82.31 1.63 12
117 09/16/2023 01:33:48 -81.18, -80.89 97.70 09/16/2023 01:33:35 -81.18, -80.85 97.70 0.65 13
118 09/16/2023 02:24:33 81.18, 86.45 82.32 09/16/2023 02:24:20 81.18, 86.34 82.34 1.87 13
119 09/16/2023 03:15:19 -81.18,-106.12 97.69 09/16/2023 03:15:05 -81.18,-106.29 97.66 2.82 14
120 09/16/2023 04:06:04 81.18, 61.21 82.33 09/16/2023 04:05:49 81.17, 61.28 82.32 1.41 15
121 09/16/2023 04:56:51 -81.18,-131.74 97.63 09/16/2023 04:56:35 -81.18,-131.73 97.62 0.44 16
122 09/16/2023 05:47:36 81.18, 35.59 82.38 09/16/2023 05:47:20 81.18, 35.46 82.41 2.28 16
123 09/16/2023 06:38:22 -81.18,-156.98 97.62 09/16/2023 06:38:05 -81.18,-157.17 97.59 3.19 17
124 09/16/2023 07:29:07 81.18, 10.35 82.39 09/16/2023 07:28:49 81.18, 10.40 82.39 0.92 18
125 09/16/2023 08:19:53 -81.18, 177.78 97.62 09/16/2023 08:19:34 -81.17, 177.78 97.61 0.56 19
126 09/16/2023 09:10:38 81.18, -14.89 82.40 09/16/2023 09:10:19 81.18, -15.04 82.43 2.61 19
127 09/16/2023 10:01:25 -81.18, 152.16 97.56 09/16/2023 10:01:04 -81.18, 152.34 97.57 3.00 21
128 09/16/2023 10:52:09 81.18, -40.51 82.46 09/16/2023 10:51:48 81.18, -40.48 82.46 0.56 21
129 09/16/2023 11:42:55 -81.18, 126.93 97.55 09/16/2023 11:42:33 -81.18, 126.90 97.54 0.49 22
130 09/16/2023 12:33:40 81.18, -65.75 82.46 09/16/2023 12:33:18 81.18, -65.92 82.50 2.94 22
131 09/16/2023 13:24:27 -81.18, 101.30 97.50 09/16/2023 13:24:03 -81.18, 101.46 97.50 2.65 24
132 09/16/2023 14:15:12 81.18, -91.37 82.52 09/16/2023 14:14:48 81.18, -91.36 82.53 0.59 24
133 09/16/2023 15:05:58 -81.18, 76.07 97.49 09/16/2023 15:05:33 -81.18, 76.02 97.47 0.87 25
134 09/16/2023 15:56:43 81.18,-116.61 82.53 09/16/2023 15:56:17 81.17,-116.42 82.52 3.30 26
135 09/16/2023 16:47:29 -81.18, 50.83 97.48 09/16/2023 16:47:02 -81.17, 50.96 97.49 2.31 27
136 09/16/2023 17:38:14 81.18,-141.84 82.54 09/16/2023 17:37:47 81.18,-141.86 82.55 0.36 27
137 09/16/2023 18:29:00 -81.18, 25.60 97.47 09/16/2023 18:28:32 -81.17, 25.52 97.45 1.36 28
138 09/16/2023 19:19:46 81.18,-167.47 82.59 09/16/2023 19:19:17 81.18,-167.29 82.59 2.94 29
139 09/16/2023 20:10:32 -81.18, -0.03 97.42 09/16/2023 20:10:02 -81.18, 0.08 97.42 1.89 30
140 09/16/2023 21:01:17 81.18, 167.30 82.60 09/16/2023 21:00:47 81.18, 167.27 82.62 0.55 30
141 09/16/2023 21:52:03 -81.18, -25.26 97.41 09/16/2023 21:51:32 -81.18, -25.36 97.38 1.60 31
142 09/16/2023 22:42:49 81.18, 141.67 82.66 09/16/2023 22:42:17 81.18, 141.83 82.66 2.65 32
143 09/16/2023 23:33:35 -81.18, -50.88 97.35 09/16/2023 23:33:02 -81.18, -50.79 97.34 1.54 33
144 09/17/2023 00:24:20 81.18, 116.44 82.67 09/17/2023 00:23:47 81.18, 116.39 82.69 1.02 33
145 09/17/2023 01:15:06 -81.18, -76.12 97.34 09/17/2023 01:14:32 -81.18, -76.23 97.31 1.96 34
146 09/17/2023 02:05:51 81.18, 91.20 82.67 09/17/2023 02:05:16 81.17, 91.33 82.67 2.24 35
147 09/17/2023 02:56:37 -81.18,-101.36 97.34 09/17/2023 02:56:01 -81.17,-101.29 97.33 1.29 36
148 09/17/2023 03:47:22 81.18, 65.96 82.68 09/17/2023 03:46:46 81.18, 65.89 82.71 1.31 36
149 09/17/2023 04:38:09 -81.18,-126.98 97.28 09/17/2023 04:37:32 -81.18,-127.11 97.24 2.39 37
150 09/17/2023 05:28:54 81.18, 40.34 82.74 09/17/2023 05:28:16 81.18, 40.45 82.75 1.87 38
151 09/17/2023 06:19:40 -81.18,-152.21 97.27 09/17/2023 06:19:01 -81.18,-152.17 97.26 0.79 39
152 09/17/2023 07:10:25 81.18, 15.10 82.75 09/17/2023 07:09:46 81.18, 15.01 82.78 1.61 39
153 09/17/2023 08:01:11 -81.18,-177.45 97.26 09/17/2023 08:00:31 -81.18,-177.61 97.22 2.71 40
154 09/17/2023 08:51:57 81.18, -10.52 82.80 09/17/2023 08:51:16 81.18, -10.43 82.82 1.60 41
155 09/17/2023 09:42:43 -81.18, 156.93 97.21 09/17/2023 09:42:01 -81.18, 156.95 97.19 0.44 42
156 09/17/2023 10:33:28 81.18, -35.76 82.81 09/17/2023 10:32:46 81.18, -35.87 82.85 2.02 42
157 09/17/2023 11:24:14 -81.18, 131.69 97.20 09/17/2023 11:23:31 -81.18, 131.51 97.15 3.07 43
158 09/17/2023 12:14:59 81.18, -61.00 82.82 09/17/2023 12:14:15 81.17, -60.93 82.83 1.19 44
159 09/17/2023 13:05:46 -81.18, 106.07 97.14 09/17/2023 13:05:01 -81.18, 106.07 97.11 0.60 45
160 09/17/2023 13:56:30 81.18, -86.23 82.83 09/17/2023 13:55:45 81.18, -86.37 82.87 2.37 45
161 09/17/2023 14:47:17 -81.18, 80.83 97.13 09/17/2023 14:46:30 -81.17, 81.01 97.13 3.12 47
162 09/17/2023 15:38:02 81.18,-111.86 82.89 09/17/2023 15:37:15 81.18,-111.81 82.90 0.79 47
163 09/17/2023 16:28:48 -81.18, 55.59 97.13 09/17/2023 16:28:00 -81.18, 55.57 97.10 0.44 48
164 09/17/2023 17:19:33 81.18,-137.09 82.89 09/17/2023 17:18:45 81.18,-137.25 82.94 2.69 48
165 09/17/2023 18:10:20 -81.18, 29.97 97.07 09/17/2023 18:09:30 -81.18, 30.13 97.06 2.76 50
166 09/17/2023 19:01:05 81.18,-162.72 82.95 09/17/2023 19:00:15 81.18,-162.69 82.98 0.65 50
167 09/17/2023 19:51:51 -81.18, 4.74 97.06 09/17/2023 19:51:00 -81.18, 4.69 97.03 0.73 51
168 09/17/2023 20:42:36 81.18, 172.04 82.96 09/17/2023 20:41:45 81.18, 171.87 83.01 3.06 51
169 09/17/2023 21:33:22 -81.18, -20.50 97.05 09/17/2023 21:32:29 -81.17, -20.37 97.05 2.46 53
170 09/17/2023 22:24:07 81.18, 146.81 82.97 09/17/2023 22:23:14 81.17, 146.81 82.99 0.39 53
171 09/17/2023 23:14:54 -81.18, -46.12 97.00 09/17/2023 23:14:00 -81.18, -46.18 96.96 1.21 54
172 09/18/2023 00:05:39 81.18, 121.18 83.02 09/18/2023 00:04:44 81.18, 121.37 83.03 3.19 55
173 09/18/2023 00:56:25 -81.18, -71.36 96.99 09/18/2023 00:55:29 -81.17, -71.24 96.97 2.02 56
174 09/18/2023 01:47:10 81.18, 95.94 83.03 09/18/2023 01:46:14 81.18, 95.93 83.06 0.29 56
175 09/18/2023 02:37:56 -81.18, -96.60 96.98 09/18/2023 02:36:59 -81.18, -96.68 96.94 1.50 57
176 09/18/2023 03:28:42 81.18, 70.32 83.09 09/18/2023 03:27:44 81.18, 70.49 83.10 2.88 58
177 09/18/2023 04:19:28 -81.18,-122.22 96.92 09/18/2023 04:18:29 -81.18,-122.12 96.90 1.64 59
178 09/18/2023 05:10:13 81.18, 45.08 83.10 09/18/2023 05:09:14 81.18, 45.05 83.14 0.77 59
179 09/18/2023 06:00:59 -81.18,-147.46 96.91 09/18/2023 05:59:59 -81.18,-147.56 96.87 1.83 60
180 09/18/2023 06:51:44 81.18, 19.84 83.11 09/18/2023 06:50:43 81.17, 19.99 83.12 2.49 61
181 09/18/2023 07:42:31 -81.18,-173.08 96.86 09/18/2023 07:41:29 -81.18,-173.00 96.83 1.38 62
182 09/18/2023 08:33:15 81.18, -5.39 83.11 09/18/2023 08:32:13 81.18, -5.45 83.15 1.09 62
183 09/18/2023 09:24:02 -81.18, 161.68 96.85 09/18/2023 09:22:59 -81.18, 161.56 96.80 2.25 63
184 09/18/2023 10:14:47 81.18, -31.02 83.17 09/18/2023 10:13:43 81.18, -30.89 83.19 2.12 64
185 09/18/2023 11:05:33 -81.18, 136.45 96.84 09/18/2023 11:04:28 -81.17, 136.50 96.82 0.94 65
186 09/18/2023 11:56:18 81.18, -56.25 83.18 09/18/2023 11:55:13 81.18, -56.33 83.22 1.36 65
187 09/18/2023 12:47:04 -81.18, 111.21 96.83 09/18/2023 12:45:58 -81.18, 111.06 96.78 2.61 66
188 09/18/2023 13:37:49 81.18, -81.88 83.24 09/18/2023 13:36:42 81.18, -81.78 83.26 1.82 67
189 09/18/2023 14:28:35 -81.18, 85.59 96.78 09/18/2023 14:27:27 -81.18, 85.62 96.74 0.53 68
190 09/18/2023 15:19:20 81.18,-107.12 83.24 09/18/2023 15:18:12 81.18,-107.22 83.30 1.76 68
191 09/18/2023 16:10:06 -81.18, 60.35 96.77 09/18/2023 16:08:57 -81.18, 60.18 96.71 2.95 69
192 09/18/2023 17:00:51 81.18,-132.35 83.25 09/18/2023 16:59:41 81.17,-132.28 83.28 1.45 70
193 09/18/2023 17:51:38 -81.18, 34.73 96.71 09/18/2023 17:50:27 -81.18, 34.74 96.67 0.53 71
194 09/18/2023 18:42:22 81.18,-157.59 83.26 09/18/2023 18:41:11 81.18,-157.72 83.31 2.13 71
195 09/18/2023 19:33:09 -81.18, 9.49 96.70 09/18/2023 19:31:56 -81.17, 9.68 96.69 3.25 73
196 09/18/2023 20:23:54 81.18, 176.78 83.32 09/18/2023 20:22:41 81.18, 176.84 83.35 1.04 73
197 09/18/2023 21:14:40 -81.18, -15.75 96.69 09/18/2023 21:13:26 -81.18, -15.76 96.66 0.42 74
198 09/18/2023 22:05:25 81.18, 151.54 83.33 09/18/2023 22:04:11 81.18, 151.40 83.38 2.44 74



Historial Predications of SNOs between FY3D and NPP
